| time (UTC) | temp C | wind direction | speed KPH | gust KPH | rain 1hr cm | rain 24hr cm | rain mn cm | humidity % | barometer mb |
| 20260906222717 | 32 | 38 | 1.6 | 1.6 | 0.00 | 0.00 | 0.00 | 34 | 1018.2 |
| 20260906222216 | 32 | 39 | 0.0 | 0.0 | 0.00 | 0.00 | 0.00 | 36 | 1018.3 |
| 20260906221714 | 33 | 69 | 1.6 | 1.6 | 0.00 | 0.00 | 0.00 | 35 | 1018.2 |
| 20260906221209 | 33 | 35 | 0.0 | 1.6 | 0.00 | 0.00 | 0.00 | 35 | 1018.4 |
| 20260906220704 | 33 | 40 | 1.6 | 1.6 | 0.00 | 0.00 | 0.00 | 35 | 1018.5 |
| 20260906220159 | 33 | 121 | 4.8 | 11.3 | 0.00 | 0.00 | 0.00 | 32 | 1018.5 |
| 20260906215658 | 33 | 36 | 0.0 | 1.6 | 0.00 | 0.00 | 0.00 | 39 | 1018.5 |
| 20260906215157 | 33 | 44 | 3.2 | 4.8 | 0.00 | 0.00 | 0.00 | 34 | 1018.5 |
| 20260906214655 | 33 | 352 | 4.8 | 8.0 | 0.00 | 0.00 | 0.00 | 34 | 1018.5 |
| 20260906214150 | 33 | 15 | 4.8 | 4.8 | 0.00 | 0.00 | 0.00 | 33 | 1018.8 |
| 20260906213650 | 32 | 31 | 1.6 | 3.2 | 0.00 | 0.00 | 0.00 | 33 | 1019.0 |
| 20260906213144 | 33 | 6 | 3.2 | 3.2 | 0.00 | 0.00 | 0.00 | 33 | 1019.1 |
| 20260906212642 | 33 | 36 | 1.6 | 1.6 | 0.00 | 0.00 | 0.00 | 33 | 1018.9 |
| 20260906212137 | 33 | 47 | 6.4 | 8.0 | 0.00 | 0.00 | 0.00 | 32 | 1019.1 |
| 20260906211637 | 33 | 40 | 1.6 | 1.6 | 0.00 | 0.00 | 0.00 | 34 | 1019.1 |
| 20260906211132 | 33 | 8 | 3.2 | 3.2 | 0.00 | 0.00 | 0.00 | 33 | 1019.1 |
| 20260906210628 | 32 | 43 | 1.6 | 3.2 | 0.00 | 0.00 | 0.00 | 36 | 1019.2 |
| 20260906210123 | 32 | 33 | 3.2 | 3.2 | 0.00 | 0.00 | 0.00 | 35 | 1019.6 |
| 20260906205618 | 33 | 89 | 3.2 | 3.2 | 0.00 | 0.00 | 0.00 | 32 | 1019.6 |
| 20260906205114 | 32 | 41 | 0.0 | 0.0 | 0.00 | 0.00 | 0.00 | 37 | 1019.6 |
| 20260906204613 | 32 | 33 | 1.6 | 3.2 | 0.00 | 0.00 | 0.00 | 34 | 1019.7 |
| 20260906204108 | 32 | 39 | 1.6 | 3.2 | 0.00 | 0.00 | 0.00 | 36 | 1019.9 |
| 20260906203608 | 32 | 46 | 3.2 | 3.2 | 0.00 | 0.00 | 0.00 | 34 | 1019.8 |
| 20260906203103 | 32 | 141 | 6.4 | 8.0 | 0.00 | 0.00 | 0.00 | 34 | 1019.7 |
| 20260906202559 | 32 | 36 | 0.0 | 0.0 | 0.00 | 0.00 | 0.00 | 37 | 1019.9 |
| 20260906202054 | 32 | 91 | 4.8 | 4.8 | 0.00 | 0.00 | 0.00 | 35 | 1020.1 |
| 20260906201554 | 32 | 40 | 0.0 | 1.6 | 0.00 | 0.00 | 0.00 | 37 | 1019.9 |
| 20260906201053 | 31 | 136 | 6.4 | 8.0 | 0.00 | 0.00 | 0.00 | 36 | 1020.1 |
| 20260906200549 | 31 | 72 | 3.2 | 3.2 | 0.00 | 0.00 | 0.00 | 35 | 1020.2 |
| 20260906200045 | 31 | 321 | 1.6 | 3.2 | 0.00 | 0.00 | 0.00 | 36 | 1020.2 |
| 20260906195540 | 31 | 44 | 1.6 | 3.2 | 0.00 | 0.00 | 0.00 | 37 | 1020.2 |
| 20260906195037 | 31 | 63 | 3.2 | 3.2 | 0.00 | 0.00 | 0.00 | 37 | 1020.4 |
| 20260906194532 | 31 | 34 | 1.6 | 3.2 | 0.00 | 0.00 | 0.00 | 37 | 1020.4 |
| 20260906194027 | 31 | 37 | 0.0 | 0.0 | 0.00 | 0.00 | 0.00 | 39 | 1020.4 |
| 20260906193522 | 30 | 37 | 1.6 | 1.6 | 0.00 | 0.00 | 0.00 | 39 | 1020.5 |
| 20260906193017 | 30 | 55 | 4.8 | 4.8 | 0.00 | 0.00 | 0.00 | 38 | 1020.6 |
| 20260906192513 | 31 | 91 | 4.8 | 8.0 | 0.00 | 0.00 | 0.00 | 37 | 1020.8 |
| 20260906192012 | 31 | 40 | 0.0 | 0.0 | 0.00 | 0.00 | 0.00 | 39 | 1020.9 |
| 20260906191507 | 30 | 13 | 3.2 | 3.2 | 0.00 | 0.00 | 0.00 | 39 | 1020.9 |
| 20260906191006 | 31 | 34 | 0.0 | 0.0 | 0.00 | 0.00 | 0.00 | 39 | 1020.9 |
| 20260906190505 | 30 | 16 | 0.0 | 1.6 | 0.00 | 0.00 | 0.00 | 40 | 1020.9 |
| 20260906190000 | 30 | 37 | 0.0 | 0.0 | 0.00 | 0.00 | 0.00 | 41 | 1021.0 |
| 20260906185459 | 30 | 54 | 0.0 | 1.6 | 0.00 | 0.00 | 0.00 | 39 | 1021.4 |
| 20260906184958 | 30 | 29 | 1.6 | 4.8 | 0.00 | 0.00 | 0.00 | 39 | 1021.4 |
| 20260906184454 | 30 | 40 | 0.0 | 1.6 | 0.00 | 0.00 | 0.00 | 41 | 1021.4 |
| 20260906183949 | 30 | 121 | 1.6 | 4.8 | 0.00 | 0.00 | 0.00 | 40 | 1021.5 |
| 20260906183445 | 30 | 55 | 1.6 | 1.6 | 0.00 | 0.00 | 0.00 | 41 | 1021.7 |
| 20260906182940 | 30 | 73 | 4.8 | 4.8 | 0.00 | 0.00 | 0.00 | 39 | 1021.7 |
| 20260906182436 | 30 | 42 | 1.6 | 3.2 | 0.00 | 0.00 | 0.00 | 40 | 1021.8 |
| 20260906181931 | 29 | 32 | 1.6 | 1.6 | 0.00 | 0.00 | 0.00 | 42 | 1021.9 |
| 20260906181427 | 29 | 37 | 0.0 | 0.0 | 0.00 | 0.00 | 0.00 | 44 | 1021.8 |
| 20260906180923 | 30 | 22 | 0.0 | 0.0 | 0.00 | 0.00 | 0.00 | 44 | 1022.1 |
| 20260906180418 | 29 | 36 | 0.0 | 0.0 | 0.00 | 0.00 | 0.00 | 45 | 1022.2 |
| 20260906175915 | 28 | 43 | 1.6 | 3.2 | 0.00 | 0.00 | 0.00 | 47 | 1022.4 |
| 20260906175410 | 28 | 39 | 0.0 | 1.6 | 0.00 | 0.00 | 0.00 | 45 | 1022.2 |
| 20260906174909 | 28 | 48 | 3.2 | 3.2 | 0.00 | 0.00 | 0.00 | 44 | 1022.3 |
| 20260906174408 | 27 | 38 | 0.0 | 0.0 | 0.00 | 0.00 | 0.00 | 47 | 1022.5 |
| 20260906173903 | 27 | 72 | 3.2 | 3.2 | 0.00 | 0.00 | 0.00 | 46 | 1022.7 |
| 20260906173359 | 28 | 38 | 1.6 | 1.6 | 0.00 | 0.00 | 0.00 | 48 | 1022.7 |
| 20260906172858 | 28 | 45 | 0.0 | 1.6 | 0.00 | 0.00 | 0.00 | 46 | 1023.0 |
| 20260906172354 | 27 | 47 | 0.0 | 1.6 | 0.00 | 0.00 | 0.00 | 46 | 1023.0 |
| 20260906171849 | 28 | 41 | 0.0 | 0.0 | 0.00 | 0.00 | 0.00 | 50 | 1023.1 |
| 20260906171344 | 28 | 38 | 0.0 | 0.0 | 0.00 | 0.00 | 0.00 | 50 | 1023.0 |
| 20260906170839 | 27 | 52 | 1.6 | 3.2 | 0.00 | 0.00 | 0.00 | 47 | 1023.2 |
| 20260906170335 | 26 | 46 | 0.0 | 0.0 | 0.00 | 0.00 | 0.00 | 51 | 1023.2 |
| 20260906165832 | 25 | 18 | 1.6 | 1.6 | 0.00 | 0.00 | 0.00 | 53 | 1023.5 |
| 20260906165330 | 27 | 38 | 0.0 | 0.0 | 0.00 | 0.00 | 0.00 | 50 | 1023.5 |
| 20260906164826 | 26 | 47 | 1.6 | 1.6 | 0.00 | 0.00 | 0.00 | 51 | 1023.5 |
| 20260906164325 | 26 | 57 | 3.2 | 3.2 | 0.00 | 0.00 | 0.00 | 52 | 1023.6 |
| 20260906163821 | 26 | 58 | 0.0 | 1.6 | 0.00 | 0.00 | 0.00 | 52 | 1023.5 |
| 20260906163317 | 25 | 33 | 0.0 | 1.6 | 0.00 | 0.00 | 0.00 | 54 | 1023.5 |
| 20260906162814 | 26 | 30 | 1.6 | 1.6 | 0.00 | 0.00 | 0.00 | 53 | 1023.6 |
| 20260906162314 | 25 | 43 | 0.0 | 0.0 | 0.00 | 0.00 | 0.00 | 56 | 1023.4 |
| 20260906161809 | 25 | 40 | 0.0 | 0.0 | 0.00 | 0.00 | 0.00 | 56 | 1023.5 |
| 20260906161308 | 25 | 109 | 3.2 | 4.8 | 0.00 | 0.00 | 0.00 | 55 | 1023.5 |
| 20260906160807 | 24 | 37 | 3.2 | 3.2 | 0.00 | 0.00 | 0.00 | 57 | 1023.5 |
| 20260906160301 | 25 | 65 | 0.0 | 1.6 | 0.00 | 0.00 | 0.00 | 57 | 1023.4 |
| 20260906155759 | 25 | 52 | 0.0 | 0.0 | 0.00 | 0.00 | 0.00 | 55 | 1023.4 |
| 20260906155254 | 24 | 33 | 0.0 | 1.6 | 0.00 | 0.00 | 0.00 | 57 | 1023.7 |
| 20260906154749 | 23 | 63 | 4.8 | 4.8 | 0.00 | 0.00 | 0.00 | 60 | 1023.5 |
| 20260906154244 | 23 | 71 | 4.8 | 4.8 | 0.00 | 0.00 | 0.00 | 58 | 1023.4 |
| 20260906153743 | 23 | 36 | 0.0 | 1.6 | 0.00 | 0.00 | 0.00 | 57 | 1023.4 |
| 20260906153237 | 23 | 56 | 0.0 | 0.0 | 0.00 | 0.00 | 0.00 | 58 | 1023.4 |
| 20260906152733 | 23 | 44 | 0.0 | 1.6 | 0.00 | 0.00 | 0.00 | 58 | 1023.5 |
| 20260906152227 | 23 | 39 | 0.0 | 0.0 | 0.00 | 0.00 | 0.00 | 59 | 1023.6 |
| 20260906151727 | 23 | 47 | 0.0 | 0.0 | 0.00 | 0.00 | 0.00 | 60 | 1023.5 |
| 20260906151222 | 23 | 44 | 0.0 | 0.0 | 0.00 | 0.00 | 0.00 | 59 | 1023.4 |
| 20260906150718 | 22 | 38 | 0.0 | 0.0 | 0.00 | 0.00 | 0.00 | 61 | 1023.6 |
| 20260906150213 | 21 | 39 | 0.0 | 0.0 | 0.00 | 0.00 | 0.00 | 65 | 1023.6 |
| 20260906145712 | 21 | 44 | 0.0 | 0.0 | 0.00 | 0.00 | 0.00 | 65 | 1023.6 |
| 20260906145211 | 20 | 39 | 0.0 | 0.0 | 0.00 | 0.00 | 0.00 | 66 | 1023.6 |
| 20260906144706 | 20 | 39 | 0.0 | 0.0 | 0.00 | 0.00 | 0.00 | 68 | 1023.6 |
| 20260906144201 | 20 | 56 | 1.6 | 1.6 | 0.00 | 0.00 | 0.00 | 66 | 1023.6 |
| 20260906143701 | 20 | 42 | 0.0 | 0.0 | 0.00 | 0.00 | 0.00 | 67 | 1023.8 |
| 20260906143158 | 20 | 48 | 0.0 | 0.0 | 0.00 | 0.00 | 0.00 | 68 | 1023.6 |
| 20260906142657 | 20 | 61 | 0.0 | 0.0 | 0.00 | 0.00 | 0.00 | 69 | 1023.5 |
| 20260906142153 | 19 | 39 | 0.0 | 0.0 | 0.00 | 0.00 | 0.00 | 69 | 1023.6 |
| 20260906141651 | 19 | 38 | 0.0 | 0.0 | 0.00 | 0.00 | 0.00 | 71 | 1023.6 |
| 20260906141147 | 18 | 14 | 1.6 | 1.6 | 0.00 | 0.00 | 0.00 | 72 | 1023.7 |
| 20260906140646 | 18 | 38 | 0.0 | 0.0 | 0.00 | 0.00 | 0.00 | 74 | 1023.5 |
| 20260906140141 | 18 | 40 | 0.0 | 0.0 | 0.00 | 0.00 | 0.00 | 75 | 1023.6 |
| 20260906135638 | 18 | 47 | 0.0 | 0.0 | 0.00 | 0.00 | 0.00 | 76 | 1023.6 |
| 20260906135134 | 17 | 35 | 0.0 | 0.0 | 0.00 | 0.00 | 0.00 | 77 | 1023.7 |
| 20260906134629 | 17 | 37 | 0.0 | 1.6 | 0.00 | 0.00 | 0.00 | 79 | 1023.8 |
| 20260906134124 | 16 | 40 | 0.0 | 0.0 | 0.00 | 0.00 | 0.00 | 82 | 1023.5 |
| 20260906133620 | 16 | 40 | 0.0 | 0.0 | 0.00 | 0.00 | 0.00 | 83 | 1023.7 |
| 20260906133115 | 15 | 44 | 0.0 | 0.0 | 0.00 | 0.00 | 0.00 | 85 | 1023.6 |
| 20260906132610 | 15 | 39 | 0.0 | 0.0 | 0.00 | 0.00 | 0.00 | 86 | 1023.6 |
| 20260906132106 | 15 | 41 | 0.0 | 0.0 | 0.00 | 0.00 | 0.00 | 88 | 1023.5 |
| 20260906131601 | 15 | 39 | 0.0 | 1.6 | 0.00 | 0.00 | 0.00 | 89 | 1023.4 |
| 20260906131056 | 15 | 40 | 0.0 | 0.0 | 0.00 | 0.00 | 0.00 | 89 | 1023.1 |
| 20260906130556 | 15 | 41 | 0.0 | 0.0 | 0.00 | 0.00 | 0.00 | 89 | 1023.2 |
| 20260906130051 | 15 | 41 | 0.0 | 0.0 | 0.00 | 0.00 | 0.00 | 89 | 1023.1 |
| 20260906125549 | 15 | 41 | 0.0 | 0.0 | 0.00 | 0.00 | 0.00 | 89 | 1023.1 |
| 20260906125048 | 15 | 38 | 0.0 | 0.0 | 0.00 | 0.00 | 0.00 | 89 | 1023.0 |
| 20260906124544 | 15 | 36 | 0.0 | 0.0 | 0.00 | 0.00 | 0.00 | 89 | 1023.2 |
| 20260906124039 | 15 | 39 | 0.0 | 0.0 | 0.00 | 0.00 | 0.00 | 89 | 1022.9 |
| 20260906123538 | 15 | 39 | 0.0 | 0.0 | 0.00 | 0.00 | 0.00 | 88 | 1023.1 |
| 20260906123033 | 15 | 37 | 0.0 | 0.0 | 0.00 | 0.00 | 0.00 | 88 | 1022.9 |
| 20260906122527 | 15 | 39 | 0.0 | 0.0 | 0.00 | 0.00 | 0.00 | 87 | 1023.1 |
| 20260906122023 | 15 | 39 | 0.0 | 0.0 | 0.00 | 0.00 | 0.00 | 87 | 1023.1 |
| 20260906121519 | 15 | 40 | 0.0 | 0.0 | 0.00 | 0.00 | 0.00 | 86 | 1023.0 |
| 20260906121015 | 16 | 40 | 0.0 | 0.0 | 0.00 | 0.00 | 0.00 | 84 | 1023.1 |
| 20260906120510 | 16 | 40 | 0.0 | 0.0 | 0.00 | 0.00 | 0.00 | 84 | 1023.1 |
| 20260906120007 | 16 | 41 | 0.0 | 0.0 | 0.00 | 0.00 | 0.00 | 83 | 1023.1 |
| 20260906115501 | 16 | 39 | 0.0 | 0.0 | 0.00 | 0.00 | 0.00 | 82 | 1023.1 |
| 20260906114956 | 16 | 39 | 0.0 | 0.0 | 0.00 | 0.00 | 0.00 | 81 | 1023.1 |
| 20260906114450 | 17 | 34 | 0.0 | 0.0 | 0.00 | 0.00 | 0.00 | 81 | 1023.1 |
| 20260906113947 | 17 | 38 | 0.0 | 0.0 | 0.00 | 0.00 | 0.00 | 80 | 1023.1 |
| 20260906113445 | 17 | 40 | 0.0 | 0.0 | 0.00 | 0.00 | 0.00 | 78 | 1023.1 |
| 20260906112941 | 17 | 37 | 0.0 | 0.0 | 0.00 | 0.00 | 0.00 | 77 | 1023.2 |
| 20260906112436 | 17 | 36 | 1.6 | 1.6 | 0.00 | 0.00 | 0.00 | 76 | 1023.0 |
| 20260906111932 | 17 | 36 | 0.0 | 0.0 | 0.00 | 0.00 | 0.00 | 75 | 1023.1 |
| 20260906111431 | 17 | 39 | 0.0 | 0.0 | 0.00 | 0.00 | 0.00 | 73 | 1022.9 |
| 20260906110926 | 17 | 15 | 4.8 | 4.8 | 0.00 | 0.00 | 0.00 | 71 | 1022.7 |
| 20260906110422 | 18 | 27 | 1.6 | 1.6 | 0.00 | 0.00 | 0.00 | 69 | 1022.9 |
| 20260906105920 | 18 | 38 | 0.0 | 0.0 | 0.00 | 0.00 | 0.00 | 67 | 1022.9 |
| 20260906105417 | 18 | 35 | 1.6 | 1.6 | 0.00 | 0.00 | 0.00 | 67 | 1022.5 |
| 20260906104912 | 18 | 33 | 3.2 | 3.2 | 0.00 | 0.00 | 0.00 | 67 | 1022.5 |
| 20260906104410 | 17 | 39 | 1.6 | 1.6 | 0.00 | 0.00 | 0.00 | 66 | 1022.5 |
| 20260906103910 | 17 | 38 | 0.0 | 0.0 | 0.00 | 0.00 | 0.00 | 66 | 1022.8 |
| 20260906103408 | 17 | 42 | 0.0 | 0.0 | 0.00 | 0.00 | 0.00 | 65 | 1022.7 |
| 20260906102904 | 18 | 43 | 0.0 | 0.0 | 0.00 | 0.00 | 0.00 | 64 | 1022.5 |
| 20260906102403 | 18 | 346 | 0.0 | 1.6 | 0.00 | 0.00 | 0.00 | 64 | 1022.4 |
| 20260906101858 | 17 | 32 | 0.0 | 0.0 | 0.00 | 0.00 | 0.00 | 65 | 1022.5 |
| 20260906101353 | 17 | 31 | 0.0 | 0.0 | 0.00 | 0.00 | 0.00 | 66 | 1022.4 |
| 20260906100849 | 17 | 38 | 0.0 | 0.0 | 0.00 | 0.00 | 0.00 | 65 | 1022.3 |
| 20260906100348 | 17 | 32 | 0.0 | 1.6 | 0.00 | 0.00 | 0.00 | 66 | 1022.3 |
| 20260906095843 | 17 | 38 | 0.0 | 0.0 | 0.00 | 0.00 | 0.00 | 66 | 1022.4 |
| 20260906095338 | 17 | 37 | 0.0 | 0.0 | 0.00 | 0.00 | 0.00 | 68 | 1022.4 |
| 20260906094838 | 17 | 38 | 0.0 | 0.0 | 0.00 | 0.00 | 0.00 | 66 | 1022.7 |
| 20260906094333 | 17 | 38 | 0.0 | 0.0 | 0.00 | 0.00 | 0.00 | 67 | 1022.5 |
| 20260906093829 | 17 | 39 | 0.0 | 0.0 | 0.00 | 0.00 | 0.00 | 67 | 1022.5 |
| 20260906093325 | 17 | 38 | 0.0 | 0.0 | 0.00 | 0.00 | 0.00 | 69 | 1022.7 |
| 20260906092820 | 17 | 37 | 0.0 | 0.0 | 0.00 | 0.00 | 0.00 | 68 | 1022.5 |
| 20260906092320 | 17 | 39 | 0.0 | 0.0 | 0.00 | 0.00 | 0.00 | 67 | 1022.4 |
| 20260906091815 | 17 | 37 | 0.0 | 0.0 | 0.00 | 0.00 | 0.00 | 67 | 1022.5 |
| 20260906091311 | 17 | 39 | 0.0 | 0.0 | 0.00 | 0.00 | 0.00 | 66 | 1022.3 |
| 20260906090808 | 17 | 39 | 0.0 | 0.0 | 0.00 | 0.00 | 0.00 | 65 | 1022.2 |
| 20260906090306 | 17 | 33 | 0.0 | 0.0 | 0.00 | 0.00 | 0.00 | 64 | 1022.1 |
| 20260906085801 | 17 | 37 | 0.0 | 0.0 | 0.00 | 0.00 | 0.00 | 64 | 1022.4 |
| 20260906085259 | 18 | 37 | 0.0 | 0.0 | 0.00 | 0.00 | 0.00 | 62 | 1022.3 |
| 20260906084754 | 18 | 42 | 0.0 | 0.0 | 0.00 | 0.00 | 0.00 | 62 | 1022.1 |
| 20260906084248 | 18 | 37 | 0.0 | 0.0 | 0.00 | 0.00 | 0.00 | 61 | 1022.1 |
| 20260906083743 | 18 | 38 | 0.0 | 0.0 | 0.00 | 0.00 | 0.00 | 62 | 1022.1 |
| 20260906083239 | 18 | 38 | 0.0 | 0.0 | 0.00 | 0.00 | 0.00 | 61 | 1021.9 |
| 20260906082733 | 18 | 34 | 0.0 | 0.0 | 0.00 | 0.00 | 0.00 | 61 | 1022.1 |
| 20260906082229 | 18 | 40 | 0.0 | 0.0 | 0.00 | 0.00 | 0.00 | 60 | 1022.1 |
| 20260906081725 | 19 | 40 | 0.0 | 0.0 | 0.00 | 0.00 | 0.00 | 59 | 1022.3 |
| 20260906081219 | 20 | 40 | 0.0 | 0.0 | 0.00 | 0.00 | 0.00 | 58 | 1022.3 |
| 20260906080716 | 20 | 50 | 1.6 | 1.6 | 0.00 | 0.00 | 0.00 | 56 | 1022.1 |
| 20260906080212 | 20 | 46 | 0.0 | 0.0 | 0.00 | 0.00 | 0.00 | 56 | 1021.9 |
| 20260906075706 | 20 | 41 | 0.0 | 0.0 | 0.00 | 0.00 | 0.00 | 54 | 1022.1 |
| 20260906075200 | 21 | 39 | 0.0 | 1.6 | 0.00 | 0.00 | 0.00 | 52 | 1021.9 |
| 20260906074655 | 21 | 40 | 0.0 | 0.0 | 0.00 | 0.00 | 0.00 | 50 | 1021.9 |
| 20260906074149 | 22 | 37 | 0.0 | 1.6 | 0.00 | 0.00 | 0.00 | 49 | 1021.7 |
| 20260906073644 | 22 | 15 | 1.6 | 1.6 | 0.00 | 0.00 | 0.00 | 50 | 1021.8 |
| 20260906073140 | 21 | 19 | 1.6 | 1.6 | 0.00 | 0.00 | 0.00 | 50 | 1021.9 |
| 20260906072635 | 21 | 25 | 3.2 | 3.2 | 0.00 | 0.00 | 0.00 | 50 | 1021.7 |
| 20260906072130 | 21 | 16 | 1.6 | 3.2 | 0.00 | 0.00 | 0.00 | 50 | 1021.8 |
| 20260906071626 | 21 | 16 | 3.2 | 3.2 | 0.00 | 0.00 | 0.00 | 49 | 1021.7 |
| 20260906071121 | 21 | 25 | 1.6 | 1.6 | 0.00 | 0.00 | 0.00 | 49 | 1021.9 |
| 20260906070618 | 21 | 28 | 1.6 | 3.2 | 0.00 | 0.00 | 0.00 | 50 | 1021.6 |
| 20260906070113 | 21 | 33 | 0.0 | 0.0 | 0.00 | 0.00 | 0.00 | 52 | 1021.6 |
| 20260906065612 | 20 | 28 | 3.2 | 3.2 | 0.00 | 0.00 | 0.00 | 56 | 1021.7 |
| 20260906065108 | 19 | 29 | 0.0 | 0.0 | 0.00 | 0.00 | 0.00 | 60 | 1021.7 |
| 20260906064604 | 19 | 39 | 0.0 | 0.0 | 0.00 | 0.00 | 0.00 | 61 | 1021.9 |
| 20260906064058 | 19 | 36 | 0.0 | 1.6 | 0.00 | 0.00 | 0.00 | 60 | 1021.8 |
| 20260906063554 | 19 | 38 | 0.0 | 0.0 | 0.00 | 0.00 | 0.00 | 61 | 1022.2 |
| 20260906063049 | 19 | 38 | 0.0 | 0.0 | 0.00 | 0.00 | 0.00 | 61 | 1022.1 |
| 20260906062545 | 20 | 40 | 0.0 | 0.0 | 0.00 | 0.00 | 0.00 | 59 | 1022.2 |
| 20260906062038 | 20 | 40 | 0.0 | 0.0 | 0.00 | 0.00 | 0.00 | 57 | 1022.3 |
| 20260906061535 | 20 | 40 | 0.0 | 0.0 | 0.00 | 0.00 | 0.00 | 56 | 1022.3 |
| 20260906061034 | 21 | 40 | 0.0 | 0.0 | 0.00 | 0.00 | 0.00 | 55 | 1022.2 |
| 20260906060531 | 21 | 40 | 0.0 | 0.0 | 0.00 | 0.00 | 0.00 | 53 | 1022.4 |
| 20260906060028 | 22 | 40 | 0.0 | 0.0 | 0.00 | 0.00 | 0.00 | 51 | 1022.4 |
| 20260906055523 | 22 | 46 | 0.0 | 0.0 | 0.00 | 0.00 | 0.00 | 50 | 1022.5 |
| 20260906055018 | 22 | 39 | 0.0 | 0.0 | 0.00 | 0.00 | 0.00 | 48 | 1022.8 |
| 20260906054518 | 23 | 15 | 4.8 | 4.8 | 0.00 | 0.00 | 0.00 | 48 | 1022.4 |
| 20260906054014 | 23 | 27 | 3.2 | 3.2 | 0.00 | 0.00 | 0.00 | 47 | 1022.5 |
| 20260906053510 | 23 | 313 | 3.2 | 8.0 | 0.00 | 0.00 | 0.00 | 46 | 1022.4 |
| 20260906053005 | 23 | 26 | 3.2 | 3.2 | 0.00 | 0.00 | 0.00 | 46 | 1022.5 |
| 20260906052501 | 23 | 348 | 8.0 | 12.9 | 0.00 | 0.00 | 0.00 | 46 | 1022.7 |
| 20260906051958 | 23 | 21 | 1.6 | 3.2 | 0.00 | 0.00 | 0.00 | 46 | 1022.5 |
| 20260906051453 | 23 | 36 | 3.2 | 3.2 | 0.00 | 0.00 | 0.00 | 46 | 1022.7 |
| 20260906050949 | 23 | 37 | 0.0 | 0.0 | 0.00 | 0.00 | 0.00 | 45 | 1022.7 |
| 20260906050448 | 24 | 70 | 0.0 | 1.6 | 0.00 | 0.00 | 0.00 | 45 | 1022.7 |
| 20260906045948 | 24 | 10 | 3.2 | 9.7 | 0.00 | 0.00 | 0.00 | 43 | 1022.8 |
| 20260906045447 | 25 | 176 | 1.6 | 3.2 | 0.00 | 0.00 | 0.00 | 42 | 1022.8 |
| 20260906044943 | 25 | 352 | 0.0 | 3.2 | 0.00 | 0.00 | 0.00 | 41 | 1022.9 |
| 20260906044438 | 24 | 328 | 0.0 | 1.6 | 0.00 | 0.00 | 0.00 | 40 | 1022.8 |
| 20260906043933 | 23 | 43 | 0.0 | 1.6 | 0.00 | 0.00 | 0.00 | 42 | 1023.2 |
| 20260906043429 | 22 | 40 | 0.0 | 0.0 | 0.00 | 0.00 | 0.00 | 43 | 1023.1 |
| 20260906042925 | 22 | 40 | 0.0 | 0.0 | 0.00 | 0.00 | 0.00 | 45 | 1023.1 |
| 20260906042424 | 22 | 43 | 0.0 | 0.0 | 0.00 | 0.00 | 0.00 | 46 | 1022.9 |
| 20260906041919 | 22 | 38 | 0.0 | 0.0 | 0.00 | 0.00 | 0.00 | 47 | 1022.7 |
| 20260906041415 | 22 | 39 | 0.0 | 0.0 | 0.00 | 0.00 | 0.00 | 50 | 1022.5 |
| 20260906040915 | 22 | 40 | 0.0 | 1.6 | 0.00 | 0.00 | 0.00 | 48 | 1022.2 |
| 20260906040410 | 21 | 40 | 0.0 | 0.0 | 0.00 | 0.00 | 0.00 | 48 | 1021.9 |
| 20260906035905 | 21 | 39 | 0.0 | 0.0 | 0.00 | 0.00 | 0.00 | 50 | 1021.8 |
| 20260906035401 | 21 | 35 | 0.0 | 0.0 | 0.00 | 0.00 | 0.00 | 49 | 1021.8 |
| 20260906034856 | 21 | 42 | 0.0 | 0.0 | 0.00 | 0.00 | 0.00 | 48 | 1021.7 |
| 20260906034356 | 21 | 44 | 0.0 | 0.0 | 0.00 | 0.00 | 0.00 | 47 | 1021.5 |
| 20260906033852 | 22 | 38 | 0.0 | 0.0 | 0.00 | 0.00 | 0.00 | 45 | 1021.6 |
| 20260906033351 | 22 | 39 | 0.0 | 0.0 | 0.00 | 0.00 | 0.00 | 45 | 1021.4 |
| 20260906032847 | 22 | 39 | 0.0 | 0.0 | 0.00 | 0.00 | 0.00 | 46 | 1021.4 |
| 20260906032343 | 22 | 39 | 0.0 | 0.0 | 0.00 | 0.00 | 0.00 | 45 | 1021.5 |
| 20260906031838 | 22 | 36 | 0.0 | 1.6 | 0.00 | 0.00 | 0.00 | 44 | 1021.4 |
| 20260906031333 | 22 | 36 | 0.0 | 0.0 | 0.00 | 0.00 | 0.00 | 46 | 1021.2 |
| 20260906030833 | 22 | 33 | 0.0 | 0.0 | 0.00 | 0.00 | 0.00 | 45 | 1021.1 |
| 20260906030329 | 22 | 41 | 0.0 | 0.0 | 0.00 | 0.00 | 0.00 | 44 | 1021.2 |
| 20260906025823 | 22 | 37 | 0.0 | 0.0 | 0.00 | 0.00 | 0.00 | 43 | 1021.1 |
| 20260906025317 | 22 | 34 | 0.0 | 0.0 | 0.00 | 0.00 | 0.00 | 43 | 1021.0 |
| 20260906024816 | 22 | 39 | 0.0 | 0.0 | 0.00 | 0.00 | 0.00 | 43 | 1020.8 |
| 20260906024315 | 23 | 39 | 0.0 | 0.0 | 0.00 | 0.00 | 0.00 | 42 | 1020.8 |
| 20260906023811 | 23 | 38 | 0.0 | 0.0 | 0.00 | 0.00 | 0.00 | 40 | 1020.4 |
| 20260906023306 | 24 | 42 | 0.0 | 0.0 | 0.00 | 0.00 | 0.00 | 40 | 1020.5 |
| 20260906022802 | 24 | 48 | 1.6 | 1.6 | 0.00 | 0.00 | 0.00 | 39 | 1020.5 |
| 20260906022257 | 24 | 40 | 0.0 | 0.0 | 0.00 | 0.00 | 0.00 | 38 | 1020.5 |
| 20260906021752 | 25 | 39 | 0.0 | 0.0 | 0.00 | 0.00 | 0.00 | 37 | 1020.5 |
| 20260906021246 | 26 | 39 | 0.0 | 0.0 | 0.00 | 0.00 | 0.00 | 35 | 1020.4 |
| 20260906020741 | 26 | 39 | 0.0 | 0.0 | 0.00 | 0.00 | 0.00 | 34 | 1020.2 |
| 20260906020241 | 26 | 34 | 0.0 | 0.0 | 0.00 | 0.00 | 0.00 | 32 | 1020.2 |
| 20260906015735 | 27 | 16 | 1.6 | 3.2 | 0.00 | 0.00 | 0.00 | 32 | 1020.2 |
| 20260906015234 | 27 | 35 | 1.6 | 1.6 | 0.00 | 0.00 | 0.00 | 32 | 1020.2 |
| 20260906014729 | 27 | 36 | 1.6 | 1.6 | 0.00 | 0.00 | 0.00 | 32 | 1020.3 |
| 20260906014225 | 27 | 14 | 1.6 | 3.2 | 0.00 | 0.00 | 0.00 | 32 | 1020.2 |
| 20260906013721 | 27 | 32 | 0.0 | 1.6 | 0.00 | 0.00 | 0.00 | 32 | 1020.1 |
| 20260906013220 | 27 | 15 | 3.2 | 3.2 | 0.00 | 0.00 | 0.00 | 32 | 1019.9 |
| 20260906012715 | 28 | 20 | 3.2 | 3.2 | 0.00 | 0.00 | 0.00 | 31 | 1020.1 |
| 20260906012210 | 28 | 35 | 3.2 | 3.2 | 0.00 | 0.00 | 0.00 | 31 | 1020.1 |
| 20260906011705 | 27 | 28 | 1.6 | 1.6 | 0.00 | 0.00 | 0.00 | 31 | 1020.1 |
| 20260906011200 | 27 | 32 | 1.6 | 3.2 | 0.00 | 0.00 | 0.00 | 31 | 1019.9 |
| 20260906010655 | 27 | 43 | 0.0 | 0.0 | 0.00 | 0.00 | 0.00 | 33 | 1020.1 |
| 20260906010152 | 27 | 38 | 0.0 | 0.0 | 0.00 | 0.00 | 0.00 | 33 | 1019.9 |
| 20260906005651 | 27 | 38 | 0.0 | 0.0 | 0.00 | 0.00 | 0.00 | 34 | 1020.1 |
| 20260906005150 | 27 | 34 | 0.0 | 0.0 | 0.00 | 0.00 | 0.00 | 35 | 1020.3 |
| 20260906004649 | 27 | 36 | 0.0 | 0.0 | 0.00 | 0.00 | 0.00 | 34 | 1020.2 |
| 20260906004144 | 28 | 36 | 0.0 | 0.0 | 0.00 | 0.00 | 0.00 | 33 | 1019.8 |
| 20260906003640 | 28 | 36 | 0.0 | 0.0 | 0.00 | 0.00 | 0.00 | 32 | 1020.1 |
| 20260906003136 | 28 | 36 | 0.0 | 0.0 | 0.00 | 0.00 | 0.00 | 32 | 1020.1 |
| 20260906002630 | 28 | 37 | 0.0 | 0.0 | 0.00 | 0.00 | 0.00 | 33 | 1020.1 |
| 20260906002125 | 29 | 40 | 0.0 | 0.0 | 0.00 | 0.00 | 0.00 | 30 | 1019.9 |
| 20260906001620 | 30 | 40 | 0.0 | 0.0 | 0.00 | 0.00 | 0.00 | 31 | 1020.2 |
| 20260906001120 | 30 | 38 | 0.0 | 0.0 | 0.00 | 0.00 | 0.00 | 30 | 1019.9 |
| 20260906000616 | 30 | 37 | 0.0 | 0.0 | 0.00 | 0.00 | 0.00 | 29 | 1020.1 |
| 20260906000111 | 30 | 39 | 0.0 | 0.0 | 0.00 | 0.00 | 0.00 | 29 | 1019.8 |
| 20260905235610 | 31 | 21 | 1.6 | 1.6 | 0.00 | 0.00 | 0.00 | 27 | 1019.8 |
| 20260905235105 | 32 | 40 | 0.0 | 0.0 | 0.00 | 0.00 | 0.00 | 27 | 1019.9 |
| 20260905234601 | 32 | 28 | 0.0 | 1.6 | 0.00 | 0.00 | 0.00 | 25 | 1019.7 |
| 20260905234056 | 33 | 33 | 0.0 | 0.0 | 0.00 | 0.00 | 0.00 | 25 | 1019.9 |
| 20260905233556 | 33 | 37 | 0.0 | 0.0 | 0.00 | 0.00 | 0.00 | 25 | 1019.8 |
| 20260905233050 | 33 | 29 | 1.6 | 1.6 | 0.00 | 0.00 | 0.00 | 23 | 1019.7 |
| 20260905232546 | 33 | 24 | 1.6 | 1.6 | 0.00 | 0.00 | 0.00 | 25 | 1019.6 |
| 20260905232041 | 33 | 34 | 1.6 | 1.6 | 0.00 | 0.00 | 0.00 | 23 | 1019.8 |
| 20260905231536 | 33 | 33 | 0.0 | 0.0 | 0.00 | 0.00 | 0.00 | 25 | 1019.8 |
| 20260905231033 | 34 | 11 | 1.6 | 1.6 | 0.00 | 0.00 | 0.00 | 25 | 1019.7 |
| 20260905230532 | 33 | 34 | 1.6 | 1.6 | 0.00 | 0.00 | 0.00 | 27 | 1019.7 |
| 20260905230031 | 33 | 37 | 0.0 | 0.0 | 0.00 | 0.00 | 0.00 | 28 | 1019.7 |
| 20260905225525 | 34 | 354 | 1.6 | 1.6 | 0.00 | 0.00 | 0.00 | 22 | 1019.7 |
| 20260905225020 | 33 | 43 | 1.6 | 1.6 | 0.00 | 0.00 | 0.00 | 24 | 1019.7 |
| 20260905224515 | 33 | 54 | 3.2 | 4.8 | 0.00 | 0.00 | 0.00 | 23 | 1019.8 |
| 20260905224014 | 32 | 39 | 0.0 | 0.0 | 0.00 | 0.00 | 0.00 | 26 | 1019.7 |
| 20260905223513 | 32 | 51 | 0.0 | 1.6 | 0.00 | 0.00 | 0.00 | 25 | 1019.8 |
| 20260905223008 | 31 | 36 | 0.0 | 0.0 | 0.00 | 0.00 | 0.00 | 25 | 1019.8 |